ECMWFFLT2_850_thetae_000.txt.gz
Theta_e
329 329 329 330 328 325 326 325 323 324 328 326 321 319 322 320 317 320 322 322 324 328 331 335 338 337 339 344 345 345 346 348 351 354 356 354 354 354 353 355 356 356 357 355 350 346 343 342 342 341 338 334 333 333 332 333 332 330 328 326 326 327 328
329 329 330 329 329 329 325 322 324 328 328 327 325 321 321 320 318 320 322 320 321 322 324 332 337 334 335 340 345 345 345 347 350 353 357 356 356 355 354 355 355 355 355 351 347 345 345 345 344 341 336 334 334 335 334 332 331 331 330 329 328 328 329
328 330 328 326 327 330 327 325 328 328 322 322 324 321 320 319 318 319 320 320 319 319 323 329 334 334 333 338 346 347 345 347 350 353 357 359 357 354 353 354 354 355 351 345 344 344 344 345 343 340 336 335 337 337 334 332 333 332 332 330 326 325 327
328 328 326 323 324 327 328 329 330 328 324 323 324 322 320 318 317 318 318 319 319 322 327 330 330 334 332 335 345 349 346 346 350 352 356 359 359 355 352 353 354 353 348 342 342 343 343 345 344 342 339 338 339 338 333 331 333 331 329 327 324 326 329
326 325 326 325 325 327 326 324 325 325 326 325 324 324 321 320 318 317 318 317 318 326 334 333 331 333 333 334 342 348 349 348 349 354 355 357 358 354 351 352 353 350 345 342 343 343 343 346 345 342 341 339 338 339 336 333 333 333 331 330 328 328 328
321 323 329 330 330 329 327 326 325 325 326 324 321 321 322 322 319 318 319 317 319 328 336 333 331 333 333 334 340 344 349 350 351 354 355 357 358 354 351 351 349 348 346 344 344 343 345 346 344 341 340 338 337 338 338 336 336 336 335 336 334 328 324
325 327 331 330 330 331 330 329 328 328 328 323 319 319 321 321 321 320 320 318 321 335 341 337 338 343 343 343 345 346 347 349 352 354 355 357 358 355 352 350 349 349 347 345 345 346 346 345 344 342 339 338 338 338 337 337 337 335 333 335 336 330 323
330 329 331 330 329 330 328 329 330 329 328 326 325 325 325 322 320 320 320 318 322 338 346 343 344 348 345 345 347 349 348 348 352 355 355 357 358 357 353 351 351 350 349 348 347 346 344 341 341 342 337 336 338 338 337 337 337 335 334 335 336 332 325
324 324 327 326 327 328 327 329 331 328 329 330 329 330 328 323 321 321 320 317 322 337 345 345 343 342 339 339 342 347 350 350 352 354 355 357 359 358 356 353 353 352 351 349 345 342 340 338 339 339 335 333 335 334 336 336 335 336 337 335 336 334 329
319 320 320 321 325 327 327 329 330 330 330 329 327 327 324 320 322 324 321 318 324 336 341 340 338 337 336 337 339 343 348 351 353 356 357 358 361 360 358 356 354 353 352 348 343 340 339 338 339 337 334 332 332 332 335 336 335 335 336 336 335 333 330
320 321 324 327 328 326 323 326 330 330 330 330 329 324 321 323 326 324 324 325 326 330 335 336 335 335 333 335 337 339 347 351 353 357 357 359 361 360 358 356 354 354 353 349 346 342 340 339 338 337 333 332 332 331 333 336 335 334 335 335 332 328 328
327 329 331 332 330 327 325 325 328 329 329 330 328 324 325 331 326 320 329 337 328 327 335 334 333 335 334 334 336 337 345 351 351 354 356 357 359 360 358 356 355 355 352 350 347 344 340 339 338 335 332 331 331 331 333 336 335 334 334 333 330 326 325
331 333 333 332 330 328 329 328 328 329 329 329 328 326 331 335 325 321 335 341 332 332 335 332 333 335 333 333 335 336 341 347 350 352 354 355 356 357 357 356 355 354 352 349 348 345 341 339 338 334 331 331 330 330 332 333 332 333 334 331 328 326 326
330 333 332 331 330 328 328 328 328 330 329 329 330 329 331 334 330 329 337 339 336 336 334 333 334 333 332 335 337 336 337 341 345 350 352 353 354 355 355 355 355 354 352 350 348 344 341 338 337 333 330 329 328 329 331 331 330 330 331 329 325 324 325
328 331 331 330 330 328 327 328 330 330 329 329 330 330 331 333 332 334 335 334 334 334 333 336 335 331 332 334 333 333 336 339 343 347 349 350 351 353 353 353 354 354 352 350 348 344 340 338 336 332 329 328 328 330 334 335 333 331 330 329 326 323 324
324 329 330 329 330 329 326 327 329 330 328 328 329 330 333 332 332 333 332 328 330 332 333 335 334 332 333 333 331 334 339 341 341 343 347 349 349 351 352 352 353 353 351 350 347 343 340 338 334 330 329 329 329 331 334 333 334 335 335 332 327 323 325
323 327 330 328 327 325 322 326 330 329 329 330 329 331 334 334 333 331 328 328 331 332 332 331 331 331 332 333 336 339 341 342 343 344 345 347 349 350 351 352 352 352 351 350 346 342 339 337 333 330 331 331 329 331 333 330 331 335 336 333 328 326 326
322 327 330 328 323 321 323 331 333 331 331 331 330 331 332 333 332 330 329 330 332 331 331 330 330 332 334 337 341 342 338 339 342 344 344 346 348 350 349 350 351 350 352 350 345 341 338 336 334 333 333 331 329 331 333 331 332 333 332 330 329 329 328
324 328 329 323 320 324 330 336 335 333 331 331 331 331 332 331 332 332 331 331 331 331 331 330 332 335 338 338 340 341 338 337 339 342 343 345 347 348 349 349 350 351 352 348 343 340 338 335 335 334 332 331 331 333 333 333 334 332 326 327 330 331 329
326 326 323 321 324 331 336 335 333 333 333 332 330 329 331 332 331 332 332 331 331 331 329 331 337 340 338 338 340 339 335 335 337 340 342 344 345 347 348 348 350 351 349 345 341 339 336 334 335 334 332 332 333 333 333 334 334 331 327 328 331 331 330
327 322 320 324 328 330 332 333 334 333 332 332 331 328 330 333 331 331 332 331 330 330 330 334 340 340 339 338 339 338 334 332 335 338 341 342 343 346 346 348 351 349 345 343 341 337 333 332 332 332 332 333 333 333 333 334 332 331 330 330 330 330 330
327 322 320 323 323 322 327 332 334 333 331 333 333 328 329 332 332 331 331 330 331 330 332 338 342 340 337 333 336 339 336 332 332 336 340 342 343 344 346 348 349 345 342 342 339 334 332 331 331 329 330 334 334 332 332 333 331 331 331 330 330 330 330
326 323 320 321 319 322 328 332 334 334 332 332 331 326 325 329 332 331 329 330 331 329 332 340 343 337 331 329 333 337 335 333 334 335 338 342 343 344 346 348 345 342 342 341 336 332 332 330 329 329 329 333 334 332 330 331 330 330 330 331 330 329 329
324 323 321 320 321 326 333 334 332 332 332 331 329 322 323 329 332 330 328 330 330 328 333 340 340 334 331 331 336 336 333 332 333 333 334 338 340 343 344 344 342 340 341 339 333 332 331 329 329 329 328 331 332 330 330 331 330 329 331 331 330 328 329
322 323 320 320 323 331 335 333 330 331 331 329 324 322 327 330 330 329 329 329 328 330 337 339 334 333 336 335 336 337 334 331 332 333 334 336 338 340 341 340 339 339 337 334 331 331 330 328 329 329 329 330 329 327 328 331 330 330 330 330 329 329 331
322 323 322 320 323 332 333 330 330 330 327 325 325 329 333 331 329 330 330 329 327 330 335 336 333 333 336 335 336 338 335 333 333 334 334 335 336 338 339 338 338 337 334 332 331 331 329 329 329 328 328 329 329 326 326 328 330 331 331 331 330 330 331
323 322 323 321 324 331 332 329 331 330 328 330 335 337 335 331 331 331 329 330 331 332 334 337 338 338 336 337 338 338 335 333 333 333 334 335 335 335 336 335 335 333 332 331 331 332 333 333 330 327 327 328 328 328 326 326 327 329 329 329 328 329 329
325 321 323 326 328 332 330 330 332 332 332 337 338 337 335 333 332 333 332 332 336 338 341 341 340 340 340 340 339 338 336 335 333 333 334 334 333 335 335 335 334 332 331 332 331 331 335 336 331 328 328 328 328 328 327 326 326 326 327 327 327 328 328
329 326 328 332 333 333 331 330 332 332 331 333 334 334 335 333 331 333 334 334 338 341 343 343 341 340 340 341 340 339 338 336 334 332 333 334 333 335 336 336 334 332 331 331 331 331 333 333 330 328 328 328 328 328 328 327 327 326 327 327 329 329 327
331 330 332 331 330 331 331 330 331 331 330 331 332 333 335 334 333 334 334 335 339 340 339 340 340 339 340 341 341 339 336 335 333 333 333 333 334 334 335 334 332 331 331 331 331 330 330 329 328 328 328 328 328 328 328 328 327 327 329 328 329 328 325
327 329 331 331 328 329 331 329 329 329 329 331 332 333 336 336 335 337 336 335 337 338 338 340 339 339 340 340 336 335 334 333 333 333 333 333 333 333 331 331 330 330 330 330 330 330 331 330 329 328 329 328 329 331 332 331 329 329 329 329 328 325 323
327 328 331 330 327 329 330 329 328 327 327 329 330 332 335 335 333 334 336 335 336 337 339 340 339 338 339 335 332 333 334 332 331 332 331 331 331 329 328 328 328 328 329 329 328 329 330 330 327 327 329 331 333 335 336 333 331 330 327 326 326 325 325
328 329 330 328 327 329 329 327 326 324 324 327 330 330 332 334 334 333 334 335 336 337 339 340 340 339 339 335 332 333 334 331 330 330 329 328 328 327 327 326 327 326 326 325 325 325 326 326 325 326 328 331 333 335 335 333 331 329 325 323 323 325 327
327 328 329 328 327 328 329 327 325 323 323 327 330 330 332 334 335 336 336 335 336 337 338 339 338 337 336 334 332 332 335 334 331 328 327 327 326 325 326 325 325 325 324 323 323 323 322 323 324 325 326 327 329 332 332 332 329 325 324 323 323 325 327
325 326 326 326 326 326 326 324 323 323 325 328 329 330 331 332 334 338 339 337 334 335 336 336 335 333 330 330 330 333 334 331 328 326 326 325 324 324 324 323 323 323 322 322 322 322 322 323 323 324 325 325 327 330 331 330 326 325 324 324 324 325 327
324 323 322 322 323 323 323 322 322 324 327 327 327 328 330 331 333 336 338 336 332 330 332 334 334 333 331 329 330 332 330 327 325 325 324 323 323 323 323 323 322 322 323 323 323 323 323 323 323 324 326 327 327 329 330 328 327 327 325 325 325 326 327
320 320 320 321 320 321 322 323 324 326 327 326 325 325 327 329 330 332 337 337 332 329 330 332 332 333 330 328 327 327 326 325 324 324 324 324 323 322 322 323 323 323 323 323 323 323 323 323 324 326 328 328 327 327 327 327 326 326 325 325 326 326 325

ECMWFFLT2_850_thetae_003.txt.gz
Theta_e
331 330 331 332 329 326 328 327 323 326 331 329 321 319 322 320 318 320 321 322 326 329 331 334 335 335 335 336 336 337 337 338 341 346 351 351 347 347 349 349 347 345 347 352 353 351 350 350 347 347 349 345 337 330 329 333 339 340 339 339 338 338 337
331 331 331 331 331 330 327 323 325 330 331 329 325 320 320 320 318 320 320 320 322 323 325 332 336 334 333 335 336 336 338 340 343 346 350 351 350 348 349 351 348 344 345 350 353 351 350 347 342 344 349 345 336 331 332 336 339 341 341 340 340 339 338
330 332 330 328 330 332 329 327 330 329 323 322 323 320 320 321 319 320 320 320 321 320 324 332 335 334 334 334 335 336 336 339 344 346 346 349 349 346 348 352 351 346 345 350 353 350 348 344 338 342 349 346 338 336 338 340 341 341 342 342 341 339 338
330 330 328 324 325 329 330 330 332 329 325 323 323 322 321 320 319 319 319 319 320 323 329 333 334 335 335 333 335 336 335 335 341 345 346 348 349 348 348 349 351 350 348 351 353 348 345 341 339 344 348 344 340 341 341 341 341 342 341 341 340 338 337
328 326 327 325 325 327 326 325 326 326 326 326 325 324 323 321 319 318 319 318 319 328 334 334 334 334 332 333 334 336 336 335 336 340 345 349 351 352 351 349 351 353 351 351 352 349 343 341 343 345 345 342 341 342 342 341 341 341 341 341 340 338 337
323 325 330 329 329 329 328 326 324 325 326 324 322 321 322 322 320 318 319 318 320 330 336 334 333 333 333 334 334 335 336 335 334 337 342 349 352 352 352 353 354 353 351 349 349 347 343 343 345 344 343 343 341 342 343 341 340 340 341 341 341 339 337
326 329 331 329 329 331 331 329 328 329 328 324 319 318 320 321 321 321 320 318 322 332 335 333 334 334 334 334 334 336 336 335 337 338 340 348 353 354 354 353 351 350 349 347 345 344 343 345 347 345 344 344 342 342 343 341 339 340 339 339 340 340 338
330 330 331 331 330 331 329 330 331 330 329 327 325 324 325 323 321 321 321 318 323 335 337 335 336 335 334 335 335 336 336 336 338 340 340 347 354 356 356 352 350 348 347 344 342 342 344 347 348 347 345 344 342 341 342 340 339 338 336 335 336 339 339
324 325 327 327 328 329 328 329 331 331 330 331 329 328 328 324 321 323 321 318 324 337 341 337 336 335 335 335 335 335 336 336 337 340 344 349 355 358 356 352 349 347 346 344 342 344 345 347 349 348 345 344 342 340 340 339 338 338 337 335 335 337 338
318 320 321 322 324 327 328 329 331 331 331 329 328 325 323 322 323 324 322 320 326 338 340 336 335 336 335 336 335 334 335 335 336 340 345 351 357 360 357 353 349 346 346 345 345 346 347 349 350 348 344 343 342 341 340 337 338 338 338 337 336 337 336
321 322 325 329 329 326 324 326 328 329 330 330 329 324 320 322 323 322 324 325 327 333 337 336 335 335 335 336 335 334 336 336 336 339 345 350 357 360 359 354 349 349 349 347 347 348 348 350 350 347 345 343 342 341 339 337 337 337 337 337 337 337 335
327 328 331 332 330 327 325 325 326 327 330 330 328 323 324 328 323 319 328 333 327 329 335 335 335 335 336 336 336 335 335 335 335 339 346 348 351 358 362 356 352 353 352 350 351 351 351 352 349 347 347 344 341 342 340 336 336 336 337 337 338 337 335
329 331 330 330 331 329 328 328 327 328 328 328 327 326 329 332 325 322 333 337 330 332 335 333 334 335 335 335 335 335 335 335 335 337 345 348 347 354 362 359 356 356 355 354 355 355 355 353 349 350 348 344 344 343 338 335 336 337 338 339 339 338 336
329 330 330 330 330 329 328 329 329 330 330 329 329 329 330 332 329 329 337 337 334 334 335 335 334 334 335 335 335 334 333 333 334 333 340 347 347 350 357 361 360 359 358 359 359 358 356 351 349 351 347 345 345 340 334 335 337 338 338 339 337 334 335
324 329 330 328 330 329 327 328 330 330 330 330 330 331 330 331 331 331 333 333 334 335 335 335 334 335 336 336 334 334 333 332 333 332 334 341 346 347 352 360 362 361 361 363 361 359 354 349 350 349 346 346 344 337 333 336 339 337 338 339 335 329 332
322 328 329 328 329 329 325 325 328 328 328 328 329 331 331 330 330 331 331 329 331 334 334 335 335 336 337 336 334 334 333 333 333 333 335 340 343 346 350 357 361 362 363 364 363 359 352 350 350 348 346 346 341 335 334 337 338 338 339 339 335 331 334
322 327 329 328 327 324 321 324 328 329 329 329 329 331 332 333 332 330 329 329 333 335 334 334 334 335 334 334 333 334 335 337 337 338 341 341 340 343 347 353 359 362 363 363 362 359 353 351 350 347 346 344 338 334 335 336 337 339 339 339 337 336 337
322 326 328 327 324 319 321 328 331 332 331 330 330 330 331 333 334 333 332 333 334 334 333 334 334 334 333 333 334 335 336 337 338 338 340 341 340 342 346 351 356 359 361 361 361 359 354 351 350 347 345 341 336 334 335 336 337 337 336 337 337 338 338
323 325 326 323 320 322 327 332 333 332 331 331 331 331 332 332 333 334 335 334 333 334 334 334 333 332 333 333 333 335 334 337 339 338 339 342 344 345 347 352 355 358 360 359 359 358 355 351 349 346 342 338 335 334 335 337 337 336 335 335 336 337 337
324 323 323 323 325 331 334 336 334 333 334 333 331 330 332 333 333 333 335 334 334 335 334 333 332 332 333 333 333 333 334 337 340 339 339 342 344 346 350 353 354 358 359 358 357 356 353 350 346 343 340 337 336 336 337 337 337 337 336 335 335 336 336
325 321 320 325 329 331 334 336 335 334 334 333 331 329 331 334 334 333 335 334 334 334 333 332 332 332 333 333 332 332 334 337 340 340 339 341 344 347 350 352 355 356 357 356 355 354 351 347 343 341 338 337 336 337 337 335 336 337 337 336 334 335 336
327 323 320 324 325 324 329 335 336 334 333 333 334 331 330 333 334 332 334 334 333 334 333 331 332 334 333 332 332 332 334 337 339 340 340 341 344 348 350 351 354 355 355 356 355 353 349 345 341 339 337 336 336 336 335 335 336 336 336 335 334 335 337
325 323 321 322 322 323 330 335 335 333 333 333 334 329 328 332 334 332 332 333 333 333 332 331 333 334 332 330 332 334 334 334 336 339 341 341 345 348 350 351 353 355 356 356 354 350 346 341 339 338 336 336 336 334 334 334 334 334 335 334 333 334 336
325 324 322 323 324 326 331 333 332 332 334 335 332 325 325 330 333 332 331 333 333 332 331 332 333 333 332 331 332 334 334 334 336 341 344 344 346 349 350 352 354 356 356 355 351 346 342 339 338 337 336 335 334 334 335 334 333 333 333 333 333 334 334
323 323 322 322 325 331 333 332 332 334 334 331 326 323 328 332 332 332 332 332 332 330 332 332 332 333 333 331 332 333 333 334 339 344 346 346 347 348 348 352 356 356 356 354 349 343 341 339 337 336 334 333 333 334 334 334 334 334 332 331 332 333 333
323 323 322 320 324 333 335 332 333 333 329 328 327 331 335 333 331 332 332 331 332 331 331 331 332 333 332 331 333 333 331 336 342 344 345 346 345 345 348 353 355 355 354 351 346 342 340 338 336 335 334 334 335 335 334 334 335 334 332 330 330 331 332
324 322 321 319 323 333 335 331 333 332 331 333 337 337 335 332 332 332 332 331 332 331 331 331 332 332 331 332 333 333 333 339 342 344 346 346 344 346 350 352 351 350 349 346 342 340 339 337 336 334 333 335 335 334 333 334 333 333 333 331 330 332 332
324 320 322 325 329 334 334 332 334 334 333 336 338 336 334 333 333 332 332 332 332 332 333 334 333 333 332 332 334 335 337 339 342 345 347 345 343 345 346 346 346 345 345 344 340 337 337 335 333 333 334 336 335 331 329 330 330 332 334 333 332 331 332
329 327 331 335 335 334 333 333 334 334 333 334 334 334 334 334 334 333 332 331 332 332 333 334 335 335 333 333 336 337 337 339 343 346 346 344 343 342 339 340 343 342 342 342 337 334 336 336 335 337 337 336 337 337 336 337 338 338 339 337 334 332 334
334 333 334 334 333 333 332 332 332 332 332 332 333 335 336 336 335 335 334 334 334 334 334 335 336 335 332 335 338 336 336 339 342 345 345 343 341 338 336 340 342 340 339 340 337 338 342 342 340 338 333 333 340 343 342 343 342 339 338 340 340 338 338
331 331 332 334 333 332 332 332 332 331 330 331 333 334 335 336 336 336 337 338 338 337 336 336 337 336 333 335 337 336 337 340 343 344 345 343 341 341 342 344 344 340 338 338 338 340 341 339 338 336 332 334 341 341 340 341 340 337 338 341 341 338 336
332 331 332 333 332 331 332 332 330 329 329 330 332 333 334 335 334 334 336 336 337 337 335 335 337 337 334 335 338 340 342 343 344 346 347 347 346 345 343 341 341 340 339 338 338 340 340 340 340 338 334 334 338 338 337 339 339 340 340 339 337 334 333
331 332 333 334 331 331 331 330 329 328 329 330 331 331 332 333 333 334 335 334 335 336 335 335 337 337 336 339 339 339 340 342 342 345 347 346 343 339 335 333 333 334 334 335 338 341 340 337 335 332 329 329 330 332 335 336 336 338 338 336 335 333 332
330 332 333 332 331 332 332 330 328 328 329 330 331 330 330 331 332 334 334 334 336 337 336 337 339 337 338 339 336 335 338 340 340 342 343 339 334 331 328 328 328 328 328 329 331 332 330 327 325 325 326 326 324 325 330 334 335 337 336 334 332 331 329
330 330 329 329 330 331 331 329 327 328 330 331 330 328 328 329 329 332 334 335 338 339 337 338 339 338 338 337 334 335 338 336 336 338 337 332 330 330 329 329 328 326 325 325 325 324 323 324 325 326 328 329 327 326 330 333 334 336 336 333 330 328 327
328 326 325 326 327 328 327 326 326 328 329 330 329 327 327 328 328 329 332 335 338 339 337 337 337 337 337 335 334 336 337 335 333 334 332 330 329 330 334 335 329 324 323 324 323 322 322 324 326 327 329 331 331 329 331 333 333 334 335 333 330 329 328
324 322 321 323 323 324 325 325 325 326 328 328 327 327 327 327 327 328 330 334 337 338 336 335 335 335 335 333 333 335 337 335 331 329 330 332 330 329 333 335 329 321 321 322 322 324 326 328 330 330 329 330 331 330 330 331 332 333 333 333 332 331 330

ECMWFFLT2_850_thetae_006.txt.gz
Theta_e
332 331 332 334 330 326 328 327 323 326 332 329 322 320 322 322 319 321 321 322 326 330 334 335 335 335 336 336 334 334 335 337 340 344 344 344 344 344 345 346 346 348 350 348 347 349 350 350 351 353 353 352 350 345 335 329 326 322 323 330 335 335 336
331 333 331 333 332 330 328 324 325 330 332 330 326 321 321 321 319 321 321 320 323 324 327 335 337 335 335 336 336 334 335 337 339 342 344 345 345 344 345 345 346 348 350 350 350 350 349 349 351 353 352 351 349 345 336 328 325 324 324 330 334 336 337
331 333 331 329 331 333 330 327 330 329 322 323 325 320 319 320 319 320 320 320 321 321 325 334 337 336 335 338 340 337 336 337 337 338 344 347 345 345 347 346 346 350 349 350 352 352 351 350 351 352 352 350 349 346 337 329 326 324 326 329 333 337 339
331 331 328 324 325 330 331 330 332 331 325 323 324 322 321 320 320 320 320 320 321 326 331 335 336 338 339 339 344 343 336 336 337 337 341 347 347 347 348 346 346 350 349 350 352 353 354 354 353 352 351 349 349 346 339 331 328 328 329 331 333 337 339
328 326 327 326 326 328 328 325 326 327 327 327 325 325 322 321 320 320 321 320 321 331 339 340 338 338 338 336 339 342 338 333 336 335 338 346 349 349 348 347 347 347 348 351 351 350 352 356 354 351 351 351 350 347 341 335 333 333 334 334 335 336 337
324 325 330 331 330 330 329 327 325 325 326 324 322 322 322 322 321 321 321 319 321 332 341 341 339 336 335 335 335 338 338 334 334 336 337 341 346 348 349 349 348 346 349 354 354 351 352 354 353 349 350 352 350 347 343 341 340 339 339 339 337 336 336
327 331 334 332 330 332 331 329 330 330 329 324 319 319 321 322 322 323 321 318 323 335 342 340 339 338 334 335 336 335 336 336 335 336 336 337 343 348 349 349 350 349 350 354 355 353 352 352 350 348 347 349 349 345 343 343 344 343 342 341 340 338 337
331 331 333 333 331 331 330 329 331 330 328 327 324 325 327 323 320 322 320 318 325 337 345 342 339 338 334 333 335 334 335 336 336 337 337 338 344 350 349 348 350 350 349 351 352 352 352 352 351 349 344 345 347 344 341 342 344 343 342 342 342 341 338
325 326 328 329 330 329 327 329 331 329 331 331 327 330 333 325 321 323 321 319 326 339 347 343 337 336 335 334 336 334 335 335 335 336 336 338 344 348 347 347 349 350 349 350 351 351 352 351 349 347 343 343 346 344 342 343 343 343 342 342 344 341 337
320 321 322 323 325 328 328 329 330 330 332 331 327 328 327 322 324 327 323 321 329 341 343 338 336 335 336 336 335 335 336 336 335 336 336 340 345 347 349 350 351 352 353 351 351 353 352 351 349 346 344 343 345 343 341 343 343 342 341 339 341 340 338
322 324 329 330 329 327 324 326 328 329 332 331 331 326 323 326 328 326 327 331 331 335 338 337 337 336 337 339 337 335 335 335 335 337 336 340 346 349 352 354 352 354 354 353 354 352 352 352 349 346 344 344 345 343 343 344 343 341 339 337 336 336 338
328 331 334 333 331 327 325 326 327 329 331 331 329 324 328 338 330 322 335 344 333 332 340 339 339 342 345 345 339 335 336 334 334 337 337 338 343 349 355 356 353 353 354 354 354 352 353 352 349 346 347 346 344 343 343 343 341 340 339 338 336 336 336
329 331 331 331 332 330 329 330 328 329 330 328 327 326 332 340 329 326 341 349 337 334 337 335 338 344 344 342 337 335 336 335 334 335 336 338 339 346 356 358 355 353 353 353 352 351 350 350 347 347 348 346 345 345 343 341 340 340 339 336 337 336 334
327 329 329 331 331 329 329 330 330 330 331 328 328 329 330 334 334 334 345 348 341 336 336 335 337 337 337 335 335 335 335 335 336 335 334 336 337 341 351 355 354 353 352 352 352 350 349 347 346 348 348 348 347 344 342 340 339 338 336 335 337 336 331
325 330 330 329 330 329 328 330 331 331 331 329 329 330 329 332 333 333 341 344 342 338 338 339 336 335 337 337 336 336 336 335 336 335 333 334 333 336 345 350 350 351 351 350 351 352 350 348 348 349 349 348 346 343 341 340 338 335 335 336 338 336 331
320 327 329 328 329 329 325 325 328 329 329 328 329 331 331 331 333 336 334 333 336 339 339 337 336 336 337 338 337 338 337 335 335 336 337 336 334 335 340 346 349 352 352 350 350 351 351 349 348 349 349 348 345 343 342 339 337 336 336 338 339 336 331
320 326 329 327 328 325 322 323 328 330 330 331 331 331 333 334 336 335 331 330 338 342 339 335 336 338 338 338 338 336 335 337 337 337 338 337 337 338 340 343 348 354 356 353 352 353 351 350 350 351 350 348 344 344 342 338 336 337 338 339 340 337 331
320 326 328 327 325 321 323 329 332 332 331 331 330 331 333 335 337 337 334 335 340 340 337 335 336 336 337 337 334 334 335 336 336 337 337 336 337 339 340 340 344 351 355 355 354 355 353 352 353 352 351 348 345 344 341 337 337 338 339 338 339 338 332
323 325 327 325 322 324 330 333 333 332 332 332 332 333 333 335 337 340 337 336 338 338 336 337 336 334 335 334 332 333 334 334 335 335 335 337 337 336 339 339 338 346 355 356 356 356 356 355 353 351 350 350 347 342 339 339 338 338 337 337 338 340 336
324 323 323 322 326 331 332 334 334 332 333 333 332 331 334 335 337 337 337 335 335 336 336 334 334 334 334 333 334 334 333 333 334 333 333 336 337 337 340 341 339 343 353 357 357 358 359 356 353 351 351 349 343 338 339 341 338 336 336 337 339 340 339
326 321 320 324 330 332 331 333 334 334 335 335 333 331 333 337 336 334 336 337 335 335 334 335 335 334 333 335 334 333 332 332 331 332 334 335 336 337 341 344 345 345 352 357 359 358 359 356 353 352 349 343 340 339 340 340 336 336 337 339 340 340 339
328 323 320 324 325 325 329 334 336 336 335 335 336 333 332 337 336 332 335 339 337 335 335 334 334 334 333 335 334 333 333 333 332 335 336 335 335 337 342 346 349 350 354 359 359 359 359 356 353 351 345 341 341 340 338 338 337 338 339 338 337 337 337
327 324 322 322 322 324 333 338 336 334 334 334 335 331 328 333 336 333 333 337 337 336 334 333 335 335 333 333 334 333 333 334 335 336 337 336 336 340 345 347 351 354 357 359 358 359 358 354 352 347 341 340 341 338 336 337 339 340 340 337 336 334 334
326 325 323 323 324 329 336 336 333 333 335 337 334 327 327 337 338 334 333 335 335 335 333 334 335 335 334 334 334 332 331 333 333 335 338 338 338 341 344 347 351 355 357 358 358 358 356 352 349 344 340 340 341 337 335 337 338 339 339 338 337 336 335
324 324 322 322 327 335 337 333 333 334 332 332 330 327 334 341 337 333 333 333 334 334 333 334 334 334 334 333 332 333 332 332 331 334 337 338 338 338 338 342 350 355 356 358 358 356 353 349 345 342 341 340 339 336 336 337 336 336 337 337 337 336 335
324 324 323 322 327 336 337 331 332 334 331 330 330 333 337 338 334 333 333 333 333 333 333 333 333 332 332 332 333 333 332 332 334 336 336 337 336 335 335 340 349 356 357 357 355 353 349 346 343 341 340 338 337 337 336 335 334 334 334 334 334 333 333
325 324 323 322 327 335 336 333 337 339 338 337 338 337 335 334 334 334 333 332 333 333 332 333 333 333 333 333 334 332 330 335 339 338 337 338 337 337 342 347 353 357 356 352 349 348 345 344 342 340 338 337 336 336 335 336 337 336 335 334 333 332 331
328 325 325 328 332 336 334 335 338 339 340 340 339 337 335 335 334 334 333 334 333 332 333 333 332 333 334 334 335 333 331 336 341 339 338 339 338 341 348 352 354 355 352 347 343 342 341 341 340 337 336 336 335 334 336 338 337 337 336 336 335 334 333
333 332 334 335 336 336 334 336 337 336 336 336 335 335 336 336 336 335 333 334 334 334 334 334 334 335 335 334 336 334 332 333 338 339 337 335 334 338 346 350 349 348 347 345 340 340 342 340 338 337 336 335 334 335 339 340 339 338 337 335 334 333 331
336 337 338 335 335 335 334 333 334 333 334 334 335 336 337 336 335 334 333 334 336 335 335 335 335 335 335 334 334 333 332 334 338 340 339 335 333 336 342 346 344 341 342 342 339 340 343 342 340 340 338 335 335 336 338 339 338 336 334 332 331 329 329
335 337 338 335 334 335 334 333 332 332 333 333 334 335 335 334 333 333 333 334 335 335 334 333 334 332 332 332 332 333 336 339 340 341 340 338 337 338 340 341 339 338 340 339 337 338 341 342 342 341 337 336 335 334 333 333 332 332 332 331 330 329 329
335 337 337 333 331 333 333 332 332 332 331 332 333 332 332 332 332 333 334 333 332 332 331 332 333 333 333 335 336 339 340 341 341 340 340 341 342 341 340 338 336 337 339 339 337 338 339 339 339 337 335 335 333 330 329 330 331 333 335 335 336 336 335
337 336 337 335 335 335 333 331 331 332 332 332 332 331 330 331 331 332 332 332 333 333 333 335 338 337 337 338 340 342 342 342 342 341 341 343 344 343 342 340 338 338 338 336 336 338 338 339 338 335 333 333 330 328 329 331 331 333 336 337 338 338 336
336 335 334 335 338 338 334 330 330 331 331 332 332 330 330 331 330 330 331 332 334 335 336 339 340 339 338 337 338 341 342 341 340 340 340 341 342 341 339 338 337 339 338 337 338 339 338 337 334 331 329 328 326 327 330 332 333 335 337 337 336 334 334
332 330 329 331 334 334 332 329 329 330 331 332 331 329 330 330 329 330 330 331 333 336 338 340 339 338 338 337 337 342 342 339 340 342 340 339 340 339 337 334 334 336 337 336 336 334 332 331 329 328 329 330 330 329 331 331 331 331 334 335 335 333 332
327 325 326 327 328 328 328 328 328 329 329 331 330 329 330 329 329 329 328 328 331 333 335 338 338 336 337 337 337 340 339 338 339 342 341 339 340 338 334 331 330 330 329 329 329 328 327 327 328 328 330 331 330 330 331 331 330 329 329 331 333 333 332
323 323 323 323 323 325 325 325 326 327 327 329 329 328 328 327 327 327 327 327 328 329 330 334 336 335 337 336 337 338 339 339 338 338 337 337 336 332 330 330 330 328 326 326 327 325 324 325 326 325 327 329 328 328 328 329 330 330 329 329 332 333 333

ECMWFFLT2_850_thetae_009.txt.gz
Theta_e
331 331 331 330 330 327 329 331 326 328 334 334 326 325 327 323 323 326 324 325 331 334 339 344 342 345 346 342 342 342 342 344 344 344 345 345 346 346 344 345 346 348 348 348 349 349 349 349 348 349 349 348 347 347 348 349 346 337 327 322 322 323 322
331 330 330 331 330 332 329 325 328 333 330 329 329 326 325 323 322 324 323 323 328 327 331 341 344 342 344 344 344 343 342 343 342 344 345 345 345 345 344 344 345 347 348 348 349 348 347 347 347 347 348 347 347 347 347 349 346 336 326 321 323 324 323
331 332 330 329 330 333 331 328 330 330 325 325 326 324 325 326 322 323 326 325 326 327 332 340 340 340 343 343 343 346 345 344 342 344 344 344 345 346 344 344 344 346 348 348 349 347 346 346 346 346 347 347 348 349 349 349 346 336 326 322 324 326 324
330 332 328 325 327 331 332 331 331 330 327 328 328 326 329 329 324 325 327 325 327 334 341 342 339 341 344 344 347 349 345 342 342 343 344 343 344 346 345 345 345 346 347 348 348 347 346 347 347 348 348 348 349 351 351 350 347 337 326 324 326 327 326
328 328 327 326 328 330 328 327 327 326 328 330 331 328 326 330 328 326 325 324 329 342 347 344 343 345 346 348 354 351 341 340 344 342 344 344 344 346 346 346 347 346 347 348 348 348 347 348 349 349 350 350 351 352 351 351 348 339 328 325 327 328 328
323 325 330 331 329 331 330 327 325 327 328 326 325 325 324 326 329 329 329 325 330 343 348 344 345 347 345 345 349 347 337 336 343 344 344 345 344 344 345 346 347 346 347 348 347 349 349 349 349 349 351 351 351 352 352 350 350 341 330 326 329 330 329
327 329 331 330 331 331 331 330 330 330 331 327 323 326 328 325 325 329 330 326 333 352 354 347 345 343 340 338 337 338 337 334 340 343 344 346 344 344 344 344 345 346 347 348 348 349 349 349 350 350 352 352 352 352 351 350 349 343 332 328 329 331 330
329 332 332 329 331 333 328 330 332 329 329 327 328 337 338 327 324 327 327 325 338 360 357 343 340 337 335 334 333 335 336 336 340 343 343 344 344 343 345 344 344 346 347 349 349 350 350 350 350 352 352 352 352 352 351 350 348 344 336 330 331 333 331
325 326 329 328 328 330 328 331 331 329 333 329 328 337 338 329 327 330 330 327 340 362 360 344 343 342 338 336 333 335 336 335 341 344 342 343 343 343 344 345 345 346 346 348 350 350 352 351 351 352 352 352 352 352 351 349 347 345 339 334 335 336 332
323 323 328 330 328 328 328 330 329 330 332 329 328 331 328 328 332 332 333 331 338 354 355 346 346 348 344 341 335 334 336 334 337 340 342 343 344 344 345 345 345 346 346 347 348 349 351 352 352 352 352 353 352 352 351 349 347 344 341 338 338 337 335
333 334 341 342 334 328 326 327 329 331 330 330 332 326 324 336 339 333 337 338 336 343 348 346 346 343 346 350 342 336 337 334 333 337 340 344 346 347 347 348 347 347 347 347 348 349 350 352 352 353 353 353 352 351 350 349 347 344 342 341 341 339 338
345 346 344 338 333 329 326 326 327 330 330 330 330 324 331 347 336 326 339 346 337 339 344 348 350 346 350 355 344 336 335 336 335 335 338 342 345 346 348 349 349 348 348 347 347 349 350 351 352 353 354 353 352 351 350 348 346 344 343 343 343 341 341
340 338 333 331 333 331 330 330 327 328 330 328 326 329 342 352 335 328 342 346 340 340 340 343 350 349 347 345 340 336 336 336 336 335 337 340 344 346 346 347 348 348 348 348 348 350 351 352 352 352 353 352 351 351 350 346 343 343 344 343 343 343 341
332 331 330 332 331 328 330 331 329 330 330 329 328 330 336 344 341 345 351 347 345 345 340 341 344 342 339 336 336 336 335 335 336 336 337 338 343 348 348 346 347 348 348 349 349 350 352 353 354 353 352 352 350 349 348 345 341 342 343 342 342 343 339
329 331 331 329 330 329 328 328 332 332 331 330 331 331 331 334 337 346 354 350 347 344 341 341 339 336 338 339 337 335 335 335 336 336 336 335 338 341 344 348 349 349 350 350 349 350 351 351 352 352 352 352 350 348 347 344 343 342 343 342 342 340 336
325 329 331 329 328 328 324 325 329 331 330 330 331 331 335 333 332 339 346 345 348 350 347 344 342 340 340 341 339 337 336 337 337 337 338 336 336 336 338 343 349 351 352 352 351 352 352 351 352 352 352 351 350 347 346 344 343 343 342 341 339 337 335
325 328 329 328 326 324 322 325 329 332 332 332 332 332 335 339 337 339 342 343 349 354 350 346 348 348 344 340 337 336 336 335 335 335 335 335 335 335 335 336 343 350 354 354 354 353 353 353 354 353 353 352 350 349 345 344 343 343 341 339 337 336 336
324 330 332 329 325 322 325 333 335 335 334 333 334 334 335 342 344 343 342 345 347 347 346 348 348 345 341 337 334 334 334 333 333 334 333 335 335 336 335 334 336 342 347 351 352 353 353 353 354 354 354 353 351 349 347 344 343 343 341 338 337 336 337
328 334 335 326 322 327 335 338 336 335 336 336 337 338 339 341 346 347 346 347 348 348 345 343 340 337 335 334 333 334 334 332 334 334 334 335 335 333 335 335 335 337 339 343 346 350 353 354 354 353 352 352 351 349 345 343 341 340 338 337 336 336 337
331 330 328 325 329 338 340 338 336 336 339 342 340 342 344 343 345 350 348 346 352 350 340 336 337 334 332 334 333 333 333 333 333 332 333 333 332 333 334 336 337 338 336 337 343 351 355 355 353 352 351 351 348 343 341 339 337 337 337 336 337 338 337
336 327 326 330 333 336 337 338 340 337 337 341 340 338 344 345 344 350 354 351 350 347 339 335 333 333 336 339 337 332 332 333 332 333 334 332 332 334 335 338 340 340 341 346 351 355 356 355 353 352 351 350 346 342 339 337 336 336 336 336 338 339 337
342 329 326 330 326 326 335 344 345 337 331 337 342 339 343 348 342 344 354 355 348 346 341 335 331 338 346 346 339 333 331 332 332 333 332 332 334 335 336 340 344 345 351 358 358 357 356 353 351 349 348 346 346 343 340 337 335 335 335 337 339 337 334
337 327 326 328 324 328 343 347 341 335 330 337 344 339 341 348 342 336 344 350 347 344 340 334 338 348 352 345 336 332 332 332 332 333 334 335 337 339 339 342 343 345 351 357 357 357 355 351 347 346 344 343 341 339 338 336 334 335 337 339 339 334 333
333 330 328 326 326 336 350 343 334 335 335 337 338 334 338 346 342 335 338 343 344 340 333 335 347 355 352 344 337 332 332 332 333 335 336 337 338 340 341 340 339 344 350 354 355 356 354 352 350 348 346 345 341 339 341 340 337 337 339 340 337 333 334
329 330 329 325 329 343 348 338 332 332 332 333 332 334 342 343 337 335 335 337 337 335 331 336 344 345 340 337 335 332 332 333 332 334 336 338 337 337 338 338 337 342 349 353 354 351 351 352 351 348 346 346 344 343 344 343 341 339 340 340 337 334 337
331 331 330 325 332 345 341 332 334 334 337 340 339 339 341 337 335 336 335 334 335 334 333 335 336 334 333 333 334 334 334 333 333 333 334 337 338 336 335 334 334 338 347 352 351 347 346 348 350 348 345 345 343 342 340 339 338 338 337 337 337 338 340
336 333 330 327 337 349 340 335 346 348 346 349 346 340 337 335 335 336 336 335 337 335 335 336 335 334 335 334 334 335 333 334 334 336 336 337 339 339 338 339 342 347 351 351 346 343 342 345 348 347 345 342 340 338 337 336 338 338 337 336 338 339 339
341 337 336 335 339 344 336 338 350 349 343 342 339 336 337 335 334 335 335 336 336 335 335 335 334 335 335 335 335 335 333 334 335 337 338 339 341 343 345 347 351 353 351 347 343 341 342 345 347 346 341 338 337 336 336 339 340 340 337 335 337 339 339
343 342 346 341 337 336 334 336 341 339 336 337 335 334 335 334 333 334 334 334 334 334 333 333 332 333 333 332 333 332 332 332 333 334 338 338 339 343 347 349 350 349 348 345 342 341 342 344 345 342 338 337 337 337 340 342 342 340 338 336 338 338 338
346 344 344 337 333 334 333 333 335 334 334 334 332 332 333 333 333 333 333 333 333 332 332 334 334 334 333 332 332 331 331 332 333 336 339 338 336 340 345 348 348 347 345 343 341 340 340 339 341 340 338 339 341 341 342 342 341 340 339 337 336 336 335
346 346 344 338 335 334 332 332 334 332 331 332 331 332 333 332 332 332 332 333 332 333 335 336 337 336 335 334 335 335 334 335 336 337 338 336 334 337 342 346 347 344 342 340 340 341 341 341 341 341 340 340 340 339 337 335 335 335 335 333 332 332 332
344 344 340 335 332 332 331 332 333 332 331 331 331 330 331 331 330 331 332 332 333 336 337 338 338 337 336 336 338 338 338 338 338 338 338 337 336 338 342 344 344 342 341 340 341 342 344 343 342 341 339 338 336 334 333 331 331 331 330 329 330 331 330
345 342 339 337 336 336 333 330 332 333 331 330 330 330 330 330 329 330 331 331 333 337 339 339 338 338 336 338 339 339 338 339 339 339 339 339 338 339 340 341 342 341 341 341 342 344 343 341 339 338 337 335 334 334 332 331 330 330 329 329 330 328 327
345 343 343 342 342 343 337 330 329 332 331 330 330 330 329 329 328 329 329 329 330 333 337 338 337 335 335 337 339 339 339 339 339 340 340 340 339 339 339 338 338 340 341 340 340 341 340 339 338 336 334 333 333 332 330 329 329 328 327 325 324 323 325
343 337 336 335 337 339 334 328 327 330 330 330 330 328 328 329 328 327 327 327 327 328 331 335 336 335 333 333 337 340 341 339 340 340 340 340 340 340 339 338 337 338 339 338 337 338 338 337 336 334 332 331 331 330 329 329 328 326 323 323 324 327 331
331 328 327 328 330 331 327 325 327 327 327 329 329 327 327 327 326 325 325 325 325 326 326 329 333 334 333 331 334 340 341 338 339 341 341 341 340 339 338 338 337 336 337 337 337 336 336 334 332 330 328 327 327 328 329 329 327 323 322 324 328 331 333
323 323 323 322 324 325 325 324 326 325 325 326 326 325 325 326 325 325 324 324 325 325 325 325 328 331 332 331 334 338 338 337 339 342 343 343 340 336 335 336 336 336 335 335 334 335 334 332 329 327 324 326 329 330 329 327 323 320 320 321 322 326 330

ECMWFFLT2_850_thetae_015.txt.gz
Theta_e
327 325 328 328 326 327 328 326 325 326 332 332 325 325 333 328 322 328 329 330 338 337 337 350 348 341 342 342 340 339 338 341 343 344 345 346 347 349 350 352 351 352 353 354 354 352 351 350 348 347 343 338 334 332 331 328 326 326 327 328 328 327 327
327 324 325 328 326 330 330 322 326 330 328 333 334 327 328 326 324 331 329 325 330 330 335 352 352 346 348 346 342 340 339 341 342 344 345 345 347 348 349 350 350 351 352 352 353 352 350 348 346 344 342 339 334 331 330 329 326 326 326 327 328 328 328
327 326 324 325 325 326 327 324 328 329 323 327 331 326 325 325 324 329 329 329 332 333 342 350 346 353 354 344 344 344 341 342 342 343 345 344 347 348 349 350 350 351 352 352 352 352 351 349 346 344 343 341 337 333 331 330 327 326 326 328 329 329 329
326 327 323 321 323 325 326 326 326 328 328 328 326 325 326 325 326 330 330 327 331 342 358 355 346 359 354 343 346 345 341 342 341 343 345 344 346 348 349 350 350 351 352 352 351 351 351 349 346 344 343 342 340 335 333 332 330 330 331 331 331 331 331
324 326 325 322 324 325 324 324 323 324 326 328 327 327 328 327 330 334 330 326 337 356 366 359 350 352 347 343 345 343 340 341 341 342 344 343 345 346 347 349 349 350 351 351 352 351 351 350 349 347 345 344 342 339 336 334 333 334 334 333 333 333 334
321 325 331 328 326 326 325 324 325 325 324 326 324 323 326 329 330 334 331 323 337 362 363 358 355 349 344 343 342 341 340 339 341 343 342 343 345 345 346 347 347 349 350 351 351 352 351 352 351 349 346 343 343 342 339 336 335 335 334 334 333 333 336
324 326 329 327 325 326 327 326 326 329 330 328 322 321 326 327 325 332 332 323 335 366 371 366 360 348 342 340 338 340 340 339 341 342 342 343 344 343 345 345 345 348 349 349 351 351 352 351 350 349 347 344 342 341 340 339 338 336 335 336 337 338 340
327 327 329 329 327 325 325 327 327 327 330 329 328 333 334 328 325 329 327 324 340 374 376 363 350 340 336 337 338 339 338 339 341 341 342 343 342 343 344 343 345 346 347 349 349 350 351 350 350 350 348 346 344 342 342 341 340 337 338 342 344 345 345
322 324 325 326 327 326 327 331 329 325 330 331 333 339 333 326 329 331 326 327 344 369 367 349 338 338 338 337 338 339 338 339 340 341 342 342 342 344 343 343 345 345 346 347 347 348 350 349 350 350 349 347 346 345 345 343 341 341 344 347 348 348 349
319 320 323 325 328 329 330 333 328 326 330 327 329 333 325 323 330 331 331 335 344 356 352 337 335 339 340 338 336 337 339 339 340 341 341 342 342 343 343 344 344 344 345 346 345 346 347 347 349 349 349 349 347 346 347 346 345 346 347 349 350 350 351
320 323 331 337 335 328 325 327 326 327 328 327 334 332 324 329 333 331 340 345 337 339 343 339 340 339 339 341 337 336 338 338 339 341 340 342 342 342 343 343 343 344 344 344 345 345 345 346 347 347 348 348 347 347 347 347 348 348 349 351 352 351 350
323 327 334 337 333 326 323 325 326 327 326 327 331 328 329 338 331 327 347 354 334 333 343 343 342 339 339 342 338 334 338 338 339 341 340 341 342 341 343 342 342 343 343 343 345 344 345 346 346 347 347 347 348 348 347 348 349 350 352 352 352 350 348
325 327 327 329 330 328 326 326 326 326 326 327 327 328 337 342 329 327 350 354 337 336 342 340 340 339 337 339 336 335 338 338 339 340 339 340 341 341 342 342 342 343 343 343 343 343 344 345 345 347 347 347 349 348 348 350 350 351 353 352 352 350 348
326 326 325 326 326 326 326 326 327 326 326 327 325 330 338 337 332 338 349 350 342 337 336 336 336 333 331 333 334 335 337 338 338 339 339 340 341 341 342 342 342 343 342 342 342 343 344 344 345 346 346 347 348 348 349 350 350 353 353 352 352 351 349
324 324 326 327 325 326 325 324 328 326 325 326 325 330 335 331 333 343 344 343 342 338 339 339 330 328 332 333 333 335 337 339 339 339 340 341 341 342 342 342 342 342 343 343 343 344 343 344 345 345 346 347 347 348 349 349 351 353 353 352 352 351 348
322 324 325 326 326 326 323 323 327 325 325 328 329 335 339 334 338 345 340 337 337 340 347 343 332 332 336 334 332 334 336 339 339 340 341 341 341 342 341 342 342 342 342 343 343 343 343 344 345 345 346 347 347 348 349 350 352 352 352 353 352 350 347
322 327 326 327 326 322 323 332 336 332 333 335 335 341 342 341 348 350 341 338 340 343 348 345 339 340 339 333 331 332 334 337 339 340 341 341 341 342 341 342 341 340 341 342 342 343 343 345 346 345 347 347 347 348 349 349 351 351 352 352 351 349 347
323 330 330 326 322 321 331 347 345 336 337 337 336 338 338 341 348 348 342 343 346 345 345 344 344 343 337 333 332 333 334 337 338 340 341 340 340 341 341 341 341 340 340 339 338 338 339 340 341 342 344 346 347 348 348 349 351 351 351 352 351 349 347
329 334 329 321 320 328 344 350 340 335 336 336 338 339 338 340 344 345 344 345 346 345 340 338 337 336 334 333 334 334 336 336 337 339 339 340 341 340 340 341 339 337 336 335 334 334 335 335 334 335 338 341 345 347 349 349 350 350 350 351 350 348 344
329 329 324 321 325 337 347 342 335 338 338 336 339 337 335 339 341 343 344 341 342 342 334 331 333 333 333 334 334 334 336 335 336 338 337 338 339 338 337 336 334 333 333 333 334 335 336 334 333 333 334 337 341 345 348 350 350 351 351 350 349 347 345
335 334 327 327 331 335 341 340 335 336 334 335 338 336 334 339 340 340 341 338 339 339 332 330 332 332 333 335 334 333 333 333 334 335 334 335 334 333 333 332 332 333 334 334 336 337 337 334 333 334 335 337 341 345 348 350 350 350 350 350 349 348 346
341 338 326 329 331 329 337 346 341 335 329 332 339 339 338 343 341 337 339 338 338 338 332 329 330 331 336 338 335 332 332 332 332 332 332 333 332 331 332 332 333 334 334 335 336 338 337 334 334 335 336 338 342 346 348 350 350 350 350 349 349 348 347
343 339 330 333 333 332 340 346 341 335 330 332 339 336 335 343 340 333 335 337 335 334 331 329 331 335 339 339 335 332 332 332 332 333 333 332 332 331 333 334 335 336 337 337 337 337 336 334 334 335 336 338 341 344 347 348 349 349 349 349 349 348 347
345 346 337 332 334 340 345 342 336 333 332 336 339 332 332 341 338 330 333 336 334 331 328 329 335 339 340 339 336 334 333 332 331 332 332 332 332 333 335 337 338 338 337 336 335 335 334 335 337 338 337 337 338 340 344 347 348 348 348 348 348 347 346
343 342 334 329 335 343 342 337 333 331 334 342 342 335 336 339 334 330 332 332 331 331 329 331 335 336 335 337 338 336 335 335 334 335 335 336 337 337 337 338 337 335 335 333 334 336 337 339 339 338 336 336 336 339 342 345 347 348 348 347 346 345 344
341 343 340 334 337 341 334 332 332 333 337 343 340 337 338 334 331 333 333 331 333 333 333 334 335 335 334 336 337 337 337 337 338 338 337 337 337 336 336 336 335 334 336 336 337 339 341 341 339 337 336 335 336 340 343 346 347 347 346 346 344 343 343
340 346 343 333 336 338 332 334 342 342 341 340 335 334 335 333 333 333 331 332 334 333 334 336 336 335 335 335 335 335 335 336 336 335 335 335 334 334 334 335 335 336 338 339 340 342 342 340 338 337 337 338 341 345 346 346 346 346 345 344 343 342 341
341 346 343 337 339 337 331 336 344 341 336 335 333 333 333 334 336 334 333 334 334 333 335 337 336 335 335 335 336 336 335 335 335 335 335 335 336 336 336 337 337 338 340 341 343 344 342 340 339 340 341 343 345 346 346 346 345 345 344 343 342 341 340
340 341 342 341 337 333 330 332 335 333 333 334 335 335 336 336 337 336 336 336 335 335 335 335 335 337 336 335 336 335 335 336 336 336 336 336 336 337 337 339 341 342 344 346 346 345 343 341 342 342 343 345 345 345 345 344 343 342 342 342 341 340 339
338 335 335 335 331 329 329 330 330 331 332 332 334 337 337 336 336 335 335 335 335 335 334 334 335 335 333 333 332 331 332 333 333 334 334 334 335 336 336 339 341 342 345 347 346 345 343 342 343 344 344 345 345 344 344 343 341 340 340 340 339 339 338
339 339 339 336 331 329 328 327 327 329 328 327 330 332 331 332 334 332 331 331 330 331 332 332 334 333 331 329 328 326 327 327 326 327 328 327 331 335 338 340 342 343 344 344 344 344 344 342 343 345 345 345 345 343 342 341 340 339 338 337 337 337 337
341 342 338 334 329 328 328 326 325 326 325 326 327 326 326 328 328 326 325 325 325 325 326 328 330 333 333 332 330 328 326 325 325 325 324 325 330 336 338 340 342 342 343 344 344 344 343 343 344 345 346 346 344 341 339 338 338 338 337 337 337 337 337
339 336 333 332 330 330 329 326 325 325 325 325 326 326 326 327 326 326 326 325 324 324 323 324 325 327 330 332 333 332 329 327 327 326 325 326 330 335 337 338 340 341 343 343 344 344 343 344 345 345 346 344 341 339 337 336 336 336 336 335 334 334 334
337 335 334 333 333 333 329 326 327 327 327 327 326 325 326 326 327 328 328 327 327 326 325 325 325 324 325 327 329 330 330 330 329 328 328 329 331 334 337 338 339 341 342 342 343 343 343 344 344 344 343 341 338 338 337 334 332 332 332 332 331 331 330
337 335 333 330 329 330 327 325 326 327 326 327 325 323 324 324 324 325 325 325 326 326 325 325 325 325 325 325 325 326 329 331 333 331 330 329 330 333 336 338 339 340 340 341 342 342 343 343 341 340 339 338 338 338 336 333 332 332 332 332 331 330 328
334 331 328 326 324 325 323 323 324 323 323 324 323 322 323 322 322 323 323 323 324 324 325 325 324 324 325 326 327 327 328 331 334 334 333 332 332 334 337 338 338 339 339 340 341 340 341 341 339 337 338 339 339 338 336 335 335 335 333 330 329 328 325
330 325 324 323 322 323 323 323 323 322 323 323 322 322 323 322 322 323 322 322 323 323 324 324 324 323 324 325 327 329 330 333 335 336 337 336 335 335 336 337 337 338 339 340 340 339 339 340 338 337 339 341 340 339 338 337 336 334 332 330 329 327 325

ECMWFFLT2_850_thetae_021.txt.gz
Theta_e
321 323 324 324 324 322 322 322 321 323 327 327 324 322 325 323 320 324 328 326 329 332 333 337 339 337 339 340 339 340 341 342 342 343 343 344 345 345 345 345 345 346 346 345 346 346 346 346 345 346 347 346 346 346 346 347 347 348 349 349 348 345 340
320 322 323 324 325 324 322 320 322 325 325 328 329 324 323 322 319 323 326 324 325 325 327 337 342 338 339 340 340 340 341 342 342 343 342 341 342 343 343 344 344 345 346 345 345 346 345 345 345 345 345 345 346 346 346 346 347 348 349 349 348 344 338
321 321 321 321 323 324 323 322 325 325 320 324 329 325 322 321 320 322 324 324 324 323 325 334 337 339 342 343 344 340 339 341 342 342 343 340 340 342 342 343 343 344 345 345 346 346 345 345 344 344 345 346 346 347 346 346 346 347 349 349 348 343 336
321 321 319 319 320 321 322 324 325 325 323 324 326 324 321 321 320 321 322 323 324 326 331 334 334 342 348 346 347 345 340 341 342 342 342 340 340 341 341 342 343 343 344 345 345 346 345 344 344 344 345 346 346 346 347 346 346 347 348 349 347 341 334
319 319 320 319 320 321 321 321 321 322 324 324 324 324 322 321 321 322 322 320 322 330 338 340 339 343 347 348 350 348 344 341 340 340 340 340 339 340 340 341 342 342 343 345 346 345 346 345 345 345 346 346 347 347 347 346 346 346 347 349 348 341 335
317 319 322 322 322 323 322 321 322 322 323 323 320 322 323 321 322 323 322 319 322 332 340 340 342 343 341 344 346 345 344 341 339 339 338 338 339 339 340 339 340 341 342 344 345 345 346 346 345 346 346 346 347 347 347 346 346 346 346 347 345 342 339
321 322 323 322 321 324 323 322 324 324 324 323 318 319 322 321 322 324 322 319 322 338 350 341 339 342 339 340 341 341 341 338 337 338 337 338 338 338 339 339 340 341 342 343 344 344 345 345 345 345 345 346 346 346 346 346 346 346 346 345 343 343 344
324 322 323 322 321 322 322 321 325 324 324 324 321 325 328 324 321 322 322 319 321 342 363 348 339 342 339 336 337 338 340 338 335 336 336 337 337 338 339 339 340 341 342 342 343 344 345 345 345 346 346 346 346 346 347 347 347 346 346 345 344 345 346
321 320 321 321 320 321 320 322 324 323 325 326 324 331 332 325 322 322 320 318 321 341 364 352 342 339 337 336 336 337 339 338 336 336 336 336 336 338 339 339 340 341 341 342 343 344 344 344 345 346 346 346 346 346 347 347 346 346 346 347 346 346 346
318 318 319 320 321 322 321 323 324 322 325 324 323 327 324 321 327 328 321 319 325 342 355 348 342 341 339 339 339 337 337 336 335 336 336 336 337 338 339 339 340 341 341 342 343 343 344 344 345 345 345 346 346 346 347 346 347 347 346 347 347 347 347
320 321 324 327 326 322 320 321 322 322 324 324 326 325 321 324 329 326 326 329 328 334 344 345 345 343 342 343 343 340 337 334 334 336 335 337 337 337 339 340 340 341 342 342 343 343 344 344 344 345 345 346 346 346 346 347 348 349 348 348 348 348 348
325 325 328 329 326 322 321 322 322 322 323 324 325 323 325 334 327 318 334 348 333 329 341 345 345 346 346 349 348 342 338 334 336 337 336 338 338 338 339 340 340 341 341 342 343 343 344 344 344 345 345 346 347 346 346 347 349 349 348 348 348 349 350
325 326 326 326 326 324 323 323 322 323 324 324 324 324 330 338 326 319 340 355 339 332 338 340 342 346 347 347 344 339 337 336 337 337 336 338 338 339 339 339 340 341 341 341 342 342 343 344 344 345 345 346 346 346 347 348 349 349 348 348 349 350 350
324 325 324 325 325 323 323 323 323 324 324 323 324 325 329 333 329 327 342 354 345 335 334 338 340 340 340 339 337 335 337 336 336 337 337 338 338 339 339 339 340 340 340 341 341 342 343 343 343 344 344 345 345 346 347 347 348 348 348 349 349 350 350
322 324 323 324 323 323 322 322 324 324 324 324 324 325 328 330 332 333 337 343 343 337 337 341 339 335 335 337 337 336 336 336 337 338 338 338 338 339 339 340 340 341 341 341 341 342 342 342 342 343 343 344 345 346 346 346 347 347 347 349 349 349 350
321 323 323 323 322 323 321 320 323 323 322 323 323 325 328 328 330 334 331 331 334 336 338 339 337 337 339 341 342 340 336 336 338 338 338 338 339 339 339 340 340 340 341 341 341 341 341 341 341 341 342 344 344 345 345 345 345 346 346 347 348 348 349
322 324 324 322 321 320 319 320 324 324 323 324 323 325 328 329 330 332 329 328 333 339 341 338 337 339 341 342 341 339 336 336 337 336 337 337 338 339 339 340 340 341 341 341 341 340 340 339 339 340 342 342 343 343 343 343 344 344 344 345 346 347 347
324 326 324 322 321 318 320 325 326 325 325 325 324 324 326 328 330 333 333 334 340 343 340 338 340 341 341 339 336 334 335 336 335 336 338 339 338 339 339 340 340 340 340 340 341 340 340 340 341 342 342 342 342 341 341 341 342 342 343 343 344 345 346
325 326 323 321 321 322 327 333 331 327 325 325 326 327 328 329 330 333 337 337 342 345 340 338 340 339 336 333 331 332 333 333 334 336 337 338 339 338 339 339 340 340 340 341 341 341 341 342 341 341 340 338 337 336 336 336 337 338 339 340 342 344 345
325 325 323 322 325 328 332 333 330 329 328 326 325 325 329 333 331 331 334 335 340 345 341 337 336 334 332 332 332 331 331 332 333 334 335 337 338 339 339 340 340 340 340 340 341 341 341 341 340 338 335 333 332 332 332 332 333 335 336 338 340 343 344
327 325 323 324 327 328 330 332 333 332 330 329 327 326 330 337 335 332 335 337 339 341 338 336 334 331 333 336 335 333 332 333 333 334 335 336 337 338 339 339 340 340 340 340 340 340 340 338 336 333 331 331 330 330 331 332 331 332 334 335 338 341 343
328 325 324 326 325 324 329 333 334 333 332 332 333 330 332 338 336 333 335 338 340 341 337 335 335 334 335 337 337 334 333 333 334 335 336 336 338 339 339 339 340 340 339 339 339 337 336 334 333 332 331 331 330 331 332 332 332 332 333 334 336 340 343
328 326 325 326 324 326 334 336 333 333 332 333 332 328 329 337 337 334 335 336 338 340 339 337 338 336 335 338 339 335 333 334 335 336 337 337 338 339 340 339 339 338 337 336 335 334 334 333 332 331 332 332 332 332 332 332 333 333 333 334 338 341 343
328 327 325 325 326 331 335 333 332 333 332 333 331 324 327 338 339 335 335 335 336 339 339 338 339 339 339 341 338 333 333 336 337 337 338 339 339 340 340 339 337 336 335 335 334 334 333 332 332 332 332 333 333 332 333 333 333 333 335 338 341 343 344
328 328 326 326 329 334 335 331 332 333 331 330 328 326 332 339 337 334 335 334 335 337 336 336 340 341 340 340 336 333 334 337 338 339 340 340 340 339 338 336 336 335 335 335 336 336 334 333 332 333 333 333 333 333 333 333 333 335 337 340 341 343 345
330 329 327 327 329 332 331 330 332 332 330 329 330 333 335 336 334 334 335 333 333 336 337 340 344 342 339 338 339 338 337 336 336 337 337 337 337 337 336 337 336 336 337 337 336 335 334 333 333 333 334 334 334 334 333 334 336 338 338 340 341 343 345
336 335 329 327 330 332 330 330 334 335 333 332 334 335 336 336 336 338 338 338 340 341 343 345 346 345 343 342 343 342 341 339 339 338 337 337 337 337 337 337 336 335 335 335 334 332 332 333 334 335 335 334 334 334 334 336 337 338 339 340 342 344 345
342 343 336 330 331 332 330 330 334 336 337 336 336 338 338 339 340 341 342 343 343 344 346 346 345 345 343 342 341 341 340 339 337 336 335 334 333 332 332 332 332 331 330 330 331 330 330 332 336 336 335 335 335 335 336 337 337 338 340 342 343 345 345
342 343 338 333 333 332 330 329 331 333 336 337 337 338 339 339 340 341 341 341 341 340 342 342 341 341 340 338 337 338 336 335 333 332 332 331 331 331 331 331 330 329 328 329 328 329 332 335 337 338 337 337 338 338 338 337 337 338 341 343 345 345 345
339 337 334 331 332 331 329 327 328 329 331 332 333 333 333 333 334 336 336 336 336 336 336 336 336 336 336 336 336 336 336 335 335 333 334 333 332 331 331 332 331 330 330 331 331 333 336 338 339 339 339 338 339 339 339 338 339 340 343 344 345 345 344
337 339 337 331 330 331 329 327 327 327 327 328 328 328 328 329 330 332 332 332 332 331 330 330 331 331 331 330 330 329 330 332 333 332 332 333 331 329 328 327 327 327 327 330 333 335 337 338 339 339 339 340 340 340 340 340 340 342 343 344 344 344 343
334 338 337 331 328 329 328 327 328 328 327 327 326 325 326 327 328 329 329 329 330 329 329 329 329 329 329 327 327 326 326 327 328 327 327 328 327 327 328 329 328 327 327 330 334 336 337 338 339 339 340 341 341 341 341 341 342 343 344 343 343 342 342
332 332 332 331 332 331 328 327 327 327 327 326 326 326 326 326 326 326 326 327 327 326 327 327 327 328 328 328 328 327 326 326 326 325 325 326 326 327 330 332 331 332 333 334 336 337 338 338 339 339 340 341 341 341 342 342 343 344 343 341 341 340 340
334 332 331 332 336 336 332 327 326 327 327 327 326 326 326 326 326 326 326 327 327 326 327 327 327 327 328 328 328 329 330 331 330 328 327 328 329 330 332 334 335 335 336 336 337 337 338 338 338 339 340 340 341 341 342 343 344 343 340 338 338 338 338
331 330 329 329 332 333 330 326 325 325 327 327 327 326 326 325 326 326 326 326 325 325 325 326 327 328 329 329 330 331 332 334 334 333 332 332 332 331 332 334 335 335 336 336 337 337 337 338 338 338 339 340 340 341 343 344 342 339 337 336 336 336 337
326 325 326 326 327 327 325 324 324 323 324 325 324 324 324 324 324 324 325 324 323 323 323 324 324 325 326 327 328 330 331 333 334 334 335 335 334 334 334 334 334 334 335 336 336 337 337 338 338 338 339 339 340 342 343 342 339 336 335 336 336 336 335
324 323 323 324 324 324 323 322 322 322 322 322 321 320 321 321 322 322 323 322 322 323 322 322 322 322 323 323 325 326 327 328 330 332 334 335 336 335 335 335 335 335 335 335 335 336 337 338 337 338 338 339 340 341 342 340 337 336 335 335 335 334 333

ECMWFFLT2_850_thetae_024.txt.gz
Theta_e
325 324 324 325 322 321 323 322 320 323 329 328 322 321 323 322 320 322 323 325 328 330 335 338 337 336 335 336 338 339 340 344 348 349 349 351 352 352 354 355 355 354 349 345 344 345 345 344 344 344 344 344 344 345 346 344 344 345 346 347 348 348 348
325 325 325 325 324 324 323 320 321 326 329 329 325 321 322 322 320 321 321 322 324 324 327 335 336 335 334 334 336 336 338 344 348 349 348 349 351 352 353 354 355 355 352 347 343 344 344 342 343 344 343 343 344 345 346 345 344 344 345 347 347 348 348
324 325 324 322 324 325 324 324 326 326 323 322 324 322 321 321 320 320 320 321 322 322 326 332 335 335 335 335 336 334 336 344 349 348 348 350 351 351 352 354 355 356 354 351 347 345 345 344 342 343 343 343 344 344 345 346 344 343 344 346 347 347 348
324 324 322 319 320 324 324 325 327 326 323 322 323 323 322 321 320 320 320 319 321 326 331 334 335 337 336 335 336 336 334 339 348 349 348 350 350 350 351 353 354 353 352 353 350 346 345 344 342 343 343 343 344 343 344 345 345 345 344 345 346 347 348
322 321 321 319 320 322 321 321 322 323 324 324 323 323 323 322 320 320 320 319 320 329 335 336 336 337 336 335 336 336 336 335 341 346 348 349 351 351 351 352 354 353 351 353 354 351 349 346 344 343 344 343 343 344 344 344 345 346 345 345 345 346 347
318 319 323 324 322 323 323 321 320 321 323 322 320 321 323 323 321 320 320 319 321 331 337 336 336 336 335 336 335 335 336 334 336 344 348 350 352 352 351 351 352 353 353 353 355 355 353 350 348 346 346 347 345 344 344 344 345 345 345 345 345 345 346
322 323 325 324 323 324 325 324 324 324 323 321 318 318 321 322 321 321 321 319 324 332 337 336 336 336 334 335 335 335 335 334 338 346 348 350 352 352 351 351 350 352 353 353 354 355 353 352 351 349 348 349 347 345 345 344 344 345 345 346 345 345 346
325 325 325 326 325 324 322 323 325 324 323 323 321 323 324 321 321 321 320 319 323 332 340 339 336 336 336 335 335 337 339 337 341 348 348 349 353 352 350 349 349 351 353 354 352 352 351 351 351 350 349 349 347 345 345 345 345 344 344 346 346 346 345
323 323 323 324 324 324 322 322 324 324 324 325 324 325 325 321 320 322 321 319 323 332 343 343 340 337 335 334 334 337 342 343 344 350 350 348 352 353 351 350 350 351 354 353 349 347 348 348 349 348 347 348 347 345 345 346 346 344 344 346 347 346 345
320 320 320 320 321 323 323 323 324 324 324 324 323 321 320 319 322 323 321 320 325 334 341 340 339 337 334 335 335 334 340 345 346 352 352 350 351 352 351 350 351 353 356 353 347 345 345 345 346 346 344 345 345 343 344 346 346 346 346 347 349 349 345
321 321 323 326 326 323 321 322 323 324 324 324 323 319 317 320 322 322 323 326 326 331 336 335 335 335 334 335 335 333 340 345 347 351 351 350 352 351 350 351 353 354 355 352 347 344 344 344 344 344 342 343 344 343 343 344 345 349 350 350 351 350 348
326 326 328 328 327 324 322 323 323 323 324 324 322 318 319 323 320 318 326 331 326 328 334 335 334 334 334 334 334 334 336 341 346 351 350 349 351 352 350 351 354 355 351 349 348 346 344 344 344 343 342 343 343 343 343 343 346 351 353 353 351 350 350
328 328 328 328 328 327 326 325 324 324 324 324 322 321 323 325 320 319 327 331 328 330 333 332 333 335 334 334 334 333 332 337 348 354 353 350 352 353 350 346 349 353 350 347 347 346 343 343 343 342 343 343 343 344 343 343 346 351 353 352 350 350 350
328 329 329 329 328 326 326 326 326 326 325 324 324 324 325 325 323 324 328 330 330 332 331 331 333 334 333 333 333 332 332 337 347 353 354 351 350 352 349 342 339 347 351 349 346 345 343 342 342 341 342 342 343 343 344 344 346 347 349 349 348 349 348
325 328 329 328 328 327 324 325 327 326 326 325 324 324 325 325 325 326 327 327 329 332 332 332 331 332 332 332 333 333 333 337 344 350 351 350 349 350 349 343 337 344 352 352 346 344 342 340 341 341 341 342 343 343 344 345 345 345 346 347 346 346 347
323 326 327 327 328 326 323 323 326 326 325 325 325 325 326 325 325 326 324 323 327 331 331 331 331 332 332 334 335 335 334 336 343 348 349 348 349 350 349 345 338 342 350 350 344 341 340 340 340 341 340 342 343 343 344 343 344 346 345 346 346 346 347
323 326 327 326 325 323 321 322 326 327 326 326 326 326 328 327 326 325 323 324 329 331 330 330 332 331 331 335 336 334 337 344 347 347 348 348 350 351 349 345 339 341 347 347 342 339 340 339 340 341 341 342 341 342 343 343 344 345 344 345 346 345 347
325 326 326 325 322 319 321 325 328 328 327 327 326 326 327 328 327 327 326 329 332 332 330 332 333 331 331 336 338 337 341 348 351 349 348 348 350 352 352 349 346 346 350 350 344 340 340 340 340 341 341 341 342 342 343 343 344 344 344 345 345 345 345
327 327 327 324 321 322 326 331 331 328 328 328 327 328 329 328 328 328 329 330 331 331 332 333 333 333 334 337 341 343 342 343 346 348 348 348 351 353 354 355 353 348 347 347 344 340 340 340 341 341 341 342 343 343 343 343 344 343 343 343 343 342 342
328 327 325 324 325 328 329 332 332 331 331 329 326 326 327 328 329 328 329 330 330 331 333 333 332 335 339 342 345 345 342 339 339 343 345 347 350 351 351 352 351 347 344 345 343 340 340 341 341 341 342 343 343 343 343 342 340 339 339 339 339 340 341
329 328 327 327 327 328 330 334 336 335 335 334 332 329 328 329 329 328 329 331 329 330 330 330 335 339 341 343 342 341 340 337 335 338 342 344 346 347 345 345 344 342 342 343 342 340 340 342 341 342 343 343 342 341 339 338 337 336 337 337 337 338 339
330 330 330 331 325 324 331 336 337 337 336 336 337 333 333 333 330 329 331 331 331 333 331 332 340 342 339 337 335 337 340 337 333 336 340 343 344 345 344 344 343 340 339 340 340 340 342 342 341 342 342 340 338 336 335 335 335 335 335 334 335 336 338
328 328 330 330 324 327 337 338 336 336 335 335 336 330 329 332 332 331 330 329 333 334 331 337 343 340 335 333 332 338 342 339 337 338 340 344 347 346 343 342 341 340 340 340 340 341 342 341 341 340 336 334 333 333 334 335 334 334 333 332 334 337 338
326 327 328 328 326 332 339 337 334 335 336 336 333 325 326 336 341 339 335 332 333 333 333 341 343 338 334 335 339 344 344 341 341 342 344 346 347 346 346 344 341 340 340 340 340 341 341 339 337 334 332 332 333 333 334 335 334 333 333 333 335 337 338
326 326 326 326 329 335 338 334 334 336 335 334 331 327 333 342 343 342 343 340 335 334 338 343 341 340 343 346 347 347 346 347 348 347 348 350 350 350 350 346 341 339 340 341 341 340 338 335 332 331 331 332 332 333 334 334 333 333 333 334 335 336 337
325 326 326 325 329 336 336 334 335 336 333 332 333 336 341 343 341 340 340 341 340 341 343 343 342 345 348 348 348 349 350 351 351 350 351 352 352 350 346 342 340 340 340 340 339 336 334 333 332 332 332 332 332 333 333 333 333 333 333 334 334 335 337
326 326 326 325 328 335 336 335 336 337 335 336 340 342 342 343 343 343 341 340 341 342 344 346 347 349 350 350 351 352 353 353 354 354 354 353 350 346 342 341 341 341 339 337 336 335 334 334 333 333 333 333 333 333 333 334 334 334 334 334 334 335 337
326 325 327 330 332 336 336 335 337 337 336 337 340 342 344 344 345 346 346 346 344 345 349 351 351 352 353 353 354 354 354 354 354 353 352 352 350 348 345 341 340 339 337 337 336 335 335 334 334 334 334 334 333 333 334 335 334 335 335 335 335 337 338
331 329 333 336 337 337 335 334 335 334 333 334 338 340 343 344 345 346 348 349 348 348 350 350 350 351 351 351 352 353 353 353 353 349 346 344 344 343 341 338 338 336 335 335 335 335 336 335 334 335 335 335 334 334 335 335 336 337 336 336 337 339 341
334 334 337 338 336 335 334 333 333 333 333 334 336 339 340 341 342 344 346 346 348 348 348 348 348 348 349 349 350 350 351 352 350 346 343 342 341 339 336 334 333 332 332 332 332 335 337 338 337 336 336 335 335 336 336 337 338 338 338 339 340 341 343
331 333 337 336 334 334 334 333 332 332 333 333 335 337 338 338 338 339 340 342 343 343 344 345 345 344 346 348 349 349 350 350 348 344 342 342 342 340 339 338 337 336 336 336 335 335 337 339 340 339 337 337 337 337 338 339 339 338 339 341 342 343 345
334 336 336 335 333 333 333 333 332 332 332 332 333 333 334 334 334 334 334 336 337 339 341 342 342 343 343 343 345 346 345 345 343 340 338 338 338 337 337 339 339 338 338 338 338 338 337 338 340 339 338 338 339 339 340 340 339 339 341 342 343 344 345
335 335 335 334 332 332 331 330 331 332 332 332 332 332 332 332 331 330 329 330 332 335 336 337 340 343 344 342 342 342 342 340 337 334 333 334 334 333 333 334 334 334 335 336 337 337 337 337 338 338 339 339 340 340 340 340 340 341 342 342 342 343 344
335 334 335 334 333 334 333 329 327 329 331 331 330 331 331 331 331 330 330 329 330 331 333 334 336 339 341 341 340 340 340 340 337 334 332 332 333 332 333 334 334 334 335 335 336 336 337 337 337 338 338 339 340 340 340 341 342 342 341 339 340 342 343
333 332 334 334 334 335 333 330 327 327 328 328 328 329 329 330 331 331 330 330 329 330 331 332 333 334 336 336 337 338 339 338 336 335 334 333 334 333 333 333 333 333 333 335 335 335 336 336 337 338 338 339 340 341 342 343 342 340 337 337 339 341 342
331 329 331 333 332 331 329 327 327 327 327 326 327 327 326 327 328 329 329 329 329 329 329 330 330 331 332 332 333 334 335 335 335 334 334 333 333 334 333 332 330 331 332 333 333 334 335 336 337 338 339 340 341 342 342 341 339 337 336 337 341 342 342
329 329 330 330 329 327 326 326 325 325 325 326 326 325 323 323 325 326 327 327 326 326 327 327 326 326 327 327 328 329 331 331 333 334 334 334 334 335 335 333 332 332 333 333 333 334 335 336 337 337 339 339 340 341 341 339 337 336 336 338 342 342 340

ECMWFFLT2_850_thetae_027.txt.gz
Theta_e
327 325 325 327 324 322 324 324 321 325 329 328 321 320 323 322 319 321 321 322 327 331 333 337 338 338 339 339 339 339 339 337 337 338 340 346 349 350 352 356 359 358 359 359 360 359 359 360 359 357 356 354 352 355 358 350 340 339 340 342 344 344 346
328 328 326 326 325 325 323 320 322 328 329 328 325 320 321 321 319 321 321 320 322 323 326 335 339 337 337 339 338 338 339 338 337 339 341 345 349 352 355 357 358 359 359 360 360 359 359 360 359 356 354 352 346 347 352 347 340 340 340 341 343 344 346
328 330 326 323 325 326 325 323 327 327 321 320 323 320 319 320 320 320 320 320 321 321 325 333 338 337 338 340 339 338 337 337 337 339 342 346 349 352 355 358 359 360 361 361 361 360 359 360 359 356 352 350 346 345 346 344 341 341 341 341 342 344 345
327 327 325 320 321 325 325 325 328 327 323 321 322 321 320 320 319 320 320 320 321 325 331 335 338 339 339 339 340 339 337 337 337 337 339 343 347 351 355 357 358 360 361 361 362 360 358 360 360 356 353 351 348 346 344 343 343 342 343 343 342 343 345
326 323 324 322 322 323 322 320 321 323 324 324 323 323 322 320 319 319 321 319 321 330 336 338 339 339 339 339 339 339 337 337 337 336 338 339 344 350 354 356 358 359 361 361 361 360 358 360 360 358 354 352 350 349 345 342 343 344 344 344 343 342 343
320 322 327 327 325 326 323 321 320 321 323 322 320 320 321 321 320 320 321 319 322 332 337 337 338 338 338 338 339 338 337 337 336 336 337 337 344 352 354 355 357 358 360 361 360 360 358 359 362 359 357 355 352 352 350 345 345 346 346 345 343 343 342
323 326 328 327 326 327 326 324 324 324 323 321 317 317 319 320 320 321 321 319 323 334 339 337 337 338 337 338 338 338 337 337 337 336 337 337 346 354 354 353 354 357 359 360 361 360 358 359 362 360 358 357 354 354 354 351 349 348 349 349 345 343 343
326 327 328 327 327 327 324 324 326 325 323 323 323 323 323 321 319 320 320 318 323 334 339 338 338 338 338 338 338 338 337 337 336 335 337 337 343 353 356 352 352 354 358 360 360 361 360 360 362 361 359 357 356 356 357 355 353 351 352 354 351 346 343
323 323 324 324 324 325 323 324 327 325 324 325 325 325 325 322 319 320 320 318 322 333 340 338 338 338 338 337 336 337 337 337 336 336 336 335 342 355 357 352 352 354 357 359 360 362 361 360 363 362 359 358 357 356 357 357 356 354 354 356 359 355 347
319 319 319 320 321 323 324 324 325 326 326 325 322 321 320 319 321 323 320 319 324 335 339 336 336 337 337 338 338 337 336 337 335 336 339 339 349 360 358 353 354 355 355 359 361 362 363 362 364 363 360 360 358 356 355 356 357 358 357 356 360 361 356
322 322 324 326 326 322 321 322 323 324 325 325 323 320 317 319 321 320 322 325 326 331 337 336 336 337 337 338 337 336 337 337 335 340 351 354 358 361 358 354 355 355 356 360 362 364 365 364 364 364 363 362 360 357 355 355 358 360 360 359 360 362 363
327 328 329 329 329 325 322 322 323 324 325 325 323 319 319 323 319 316 325 331 326 328 334 337 337 336 337 338 337 336 337 336 333 340 357 362 361 360 358 355 356 357 358 361 364 365 366 365 365 366 364 362 361 358 353 354 359 360 361 362 362 363 365
329 330 329 329 329 327 326 325 324 324 325 324 322 321 324 326 320 318 327 331 328 330 332 333 335 337 338 337 337 336 335 336 335 335 348 359 361 362 360 356 356 359 361 363 366 366 366 365 365 367 365 361 360 358 355 355 359 361 363 364 363 364 366
327 329 329 329 329 327 327 327 327 327 326 324 324 324 325 326 324 324 329 330 330 331 332 332 335 336 337 336 336 336 334 336 336 333 339 348 352 356 360 360 358 358 361 366 366 366 367 366 365 365 362 357 354 357 358 358 360 362 364 364 363 362 363
326 329 330 329 328 326 325 326 328 328 327 327 325 325 326 326 325 326 328 327 329 331 332 334 334 335 337 336 336 337 335 336 335 334 336 337 336 342 352 360 360 356 360 367 367 365 363 360 362 362 357 350 352 357 359 357 358 362 364 362 360 359 359
324 329 330 329 329 327 323 323 326 327 326 326 326 327 327 325 324 325 324 323 326 330 332 334 334 335 335 335 337 337 336 336 335 334 335 333 334 336 337 349 359 358 360 363 362 362 359 352 355 359 354 348 351 358 359 355 357 363 364 361 357 358 359
324 327 329 328 328 326 322 323 326 328 328 327 327 327 328 328 327 325 323 323 329 332 331 332 333 333 334 335 336 336 335 337 335 334 335 333 334 335 334 344 357 361 359 354 352 359 360 348 346 353 354 348 350 358 358 353 355 362 364 360 355 355 358
323 327 329 328 325 322 323 328 329 329 329 329 328 328 329 330 329 328 328 328 331 331 330 331 331 332 334 334 334 335 335 336 336 334 334 334 333 334 336 342 352 361 362 357 356 362 363 353 350 358 362 357 354 357 355 350 353 359 359 356 352 352 354
324 327 329 326 322 324 328 331 331 330 330 329 330 330 330 330 330 331 331 331 331 331 331 331 331 331 332 331 333 334 332 333 334 333 333 335 334 333 334 339 349 359 363 363 365 367 366 363 361 362 364 362 356 354 351 348 351 353 352 351 350 348 350
328 327 326 325 327 330 331 332 330 330 331 330 329 330 331 331 330 330 330 331 331 331 330 331 331 331 332 331 332 332 331 331 333 332 333 335 334 333 336 342 349 359 362 363 365 366 367 366 362 360 363 365 361 355 350 348 348 346 347 349 349 348 350
329 325 323 326 328 327 329 334 335 334 334 334 334 332 333 334 332 332 332 332 331 331 331 331 331 331 333 334 332 331 332 332 332 331 333 334 333 333 339 347 354 355 355 361 365 365 366 365 364 365 367 367 363 356 351 348 346 345 346 348 348 348 348
329 325 324 327 326 325 330 336 337 336 335 335 336 334 333 333 332 331 331 331 331 331 331 332 332 332 333 333 333 333 332 333 333 332 334 334 333 335 343 354 360 353 349 359 365 363 365 367 365 363 365 366 362 356 350 347 345 346 347 347 347 347 346
328 326 325 326 326 329 337 339 336 336 335 335 335 331 329 335 339 339 339 338 338 336 333 332 331 333 332 331 332 334 333 335 335 334 337 338 335 339 348 356 360 353 348 358 364 363 364 364 357 353 359 364 361 353 347 345 344 346 348 348 348 348 348
327 326 325 326 327 333 340 339 335 335 335 336 334 327 328 340 347 345 345 344 343 344 343 338 333 332 332 331 331 333 334 335 333 333 338 338 335 342 351 356 359 356 354 360 365 365 364 359 350 350 359 362 358 350 346 347 349 351 351 351 348 344 342
325 326 325 324 327 335 339 336 336 337 335 334 331 328 335 346 347 345 347 347 345 345 345 343 337 332 331 331 332 335 337 336 334 338 342 344 342 346 352 356 361 362 362 365 365 364 364 360 353 354 360 361 358 351 348 352 358 359 354 349 342 336 334
324 325 324 323 327 336 338 335 335 336 333 331 333 337 343 346 344 344 347 347 347 346 345 344 343 336 331 330 331 338 344 346 347 348 348 348 349 353 357 360 361 362 363 364 364 365 365 363 360 360 362 360 354 351 355 361 362 358 350 341 334 334 336
325 323 323 323 327 335 339 336 336 337 335 334 338 341 341 341 342 344 345 345 348 348 345 343 343 340 334 333 336 343 349 352 353 354 354 354 357 360 361 360 361 363 365 366 366 366 365 363 364 365 363 356 350 352 357 358 352 344 338 334 333 336 338
324 321 323 327 331 336 338 337 337 339 338 338 339 339 340 341 343 344 345 345 347 349 347 344 341 339 339 344 349 353 356 356 356 358 360 361 362 362 361 361 363 364 365 363 362 362 363 363 364 362 355 347 345 347 346 341 336 334 334 334 336 337 337
328 327 331 336 337 337 336 336 338 338 337 338 339 340 342 343 343 344 346 345 345 348 347 344 343 345 349 352 353 354 357 358 359 360 360 360 360 360 360 362 362 362 361 361 361 362 362 360 356 350 341 337 337 336 334 333 333 335 335 336 337 337 337
337 337 339 338 336 336 336 335 336 336 337 338 339 340 341 342 342 344 345 345 346 347 346 345 347 350 352 352 351 352 356 358 358 358 359 358 359 360 360 359 359 359 359 358 357 356 353 347 341 338 334 333 333 333 334 336 335 335 336 338 338 338 338
337 337 339 337 336 336 336 335 336 335 334 335 335 337 339 339 339 342 344 344 345 346 346 348 350 351 352 353 353 354 357 358 357 358 358 358 357 357 356 355 354 353 351 349 347 346 345 341 337 335 335 334 334 334 335 336 336 336 337 338 338 337 338
337 338 339 338 338 338 337 336 336 334 334 335 334 335 337 337 337 339 341 343 344 345 346 348 348 349 350 352 353 354 354 355 356 357 358 359 359 358 357 356 354 351 350 350 349 348 348 344 337 335 337 337 336 337 337 337 337 338 339 339 338 338 340
337 338 338 337 337 337 335 336 336 334 334 335 335 334 335 335 335 336 337 339 341 343 343 344 345 346 347 348 350 351 351 351 352 354 355 357 358 358 358 357 354 351 350 349 346 346 347 346 342 342 343 341 340 340 339 339 339 340 340 341 343 344 345
336 337 337 336 336 335 334 334 334 333 332 333 333 333 333 333 333 334 334 335 336 336 338 340 341 343 344 345 346 347 348 350 351 351 352 352 353 354 353 350 346 345 344 343 342 344 347 348 348 349 349 349 348 346 342 340 341 340 340 343 346 347 347
335 336 337 337 336 335 335 334 333 332 332 332 331 330 330 330 331 331 332 332 332 332 333 335 336 338 339 340 341 342 344 347 348 349 350 350 350 350 349 347 344 342 340 339 338 340 344 345 346 349 351 351 351 348 344 342 342 341 343 346 347 347 346
334 335 336 336 335 334 333 332 331 330 330 331 329 328 327 328 329 329 330 330 330 330 331 331 332 334 334 335 336 336 337 339 342 346 347 347 348 349 348 347 345 342 340 339 338 339 341 341 341 344 347 346 345 344 344 344 342 341 344 347 347 345 344
332 333 334 333 332 331 330 330 329 327 327 327 327 326 325 325 327 328 328 328 328 328 328 328 329 330 331 331 332 332 333 335 336 338 342 344 345 346 345 340 338 337 337 336 336 336 337 337 338 339 340 340 340 340 343 343 340 338 342 346 345 344 343

ECMWFFLT2_850_thetae_030.txt.gz
Theta_e
329 328 328 328 325 321 323 323 319 322 327 325 320 319 322 320 319 321 321 322 327 330 333 337 337 339 340 342 341 339 342 343 341 345 349 348 348 347 346 349 352 353 353 353 355 357 357 356 356 356 356 356 356 357 358 359 360 359 356 353 346 340 340
329 330 328 328 327 325 323 319 321 326 327 326 323 319 318 319 319 321 320 320 323 324 327 334 338 339 339 341 341 339 342 342 341 346 348 347 349 349 348 349 351 352 353 354 357 358 358 357 356 356 356 356 355 355 356 358 359 359 358 353 346 342 341
329 330 328 326 327 328 325 323 326 325 319 318 321 318 317 318 319 321 320 320 322 322 325 333 337 337 339 341 342 341 341 341 340 346 348 348 349 349 347 347 348 351 353 355 358 360 359 358 357 357 357 356 354 354 355 356 357 357 356 353 347 343 343
329 328 325 321 322 326 326 325 327 326 321 319 319 319 319 319 319 319 319 319 321 325 331 334 337 340 340 341 343 342 340 340 340 343 349 351 350 348 346 346 347 348 351 354 359 360 360 360 359 358 358 357 355 354 354 356 357 357 357 354 349 344 343
327 324 325 324 323 324 323 321 321 321 322 323 321 321 320 320 319 319 319 318 321 329 337 337 340 344 341 340 344 345 341 340 339 339 345 347 346 346 346 348 348 349 352 356 359 361 361 360 360 360 360 358 356 356 355 356 359 359 356 353 350 344 342
322 323 328 329 327 327 324 321 320 320 321 321 318 318 320 320 320 319 320 319 321 331 339 340 342 343 340 339 344 343 339 340 340 338 341 343 343 345 346 348 350 351 355 357 359 360 361 362 362 361 361 358 356 358 357 356 360 360 354 350 349 344 342
325 329 331 329 329 330 328 326 325 324 323 320 316 315 318 320 320 320 320 318 322 334 345 343 341 342 340 338 342 342 339 339 339 339 341 342 342 345 346 347 348 349 351 353 352 355 359 362 363 362 361 359 357 358 359 358 358 357 353 350 347 345 343
328 329 331 331 330 330 327 326 327 325 323 322 320 321 322 320 318 319 319 317 322 335 347 346 343 343 339 338 341 341 339 339 339 338 341 344 346 347 347 347 349 349 349 349 348 350 358 362 361 362 362 360 359 359 359 359 357 353 354 353 349 346 345
324 325 326 326 327 328 326 326 328 326 326 325 323 324 325 321 318 320 319 317 322 333 345 347 343 339 338 337 338 338 339 341 339 340 344 346 347 349 348 349 351 350 348 348 349 353 359 362 361 362 363 361 361 359 358 360 359 354 356 357 354 349 346
319 320 320 320 323 326 326 327 328 327 327 325 322 320 319 318 321 323 320 319 325 336 343 343 340 340 342 342 338 337 339 339 338 342 347 347 346 349 351 352 351 350 346 347 352 358 362 363 361 362 363 362 362 360 359 360 360 358 358 358 358 355 349
321 322 324 327 327 325 323 324 326 326 327 327 324 319 315 318 321 321 324 327 328 332 339 341 339 338 341 344 341 339 341 341 338 339 346 351 350 350 354 354 351 350 347 347 354 360 362 362 361 362 363 363 363 361 359 359 359 358 358 357 359 359 356
325 328 331 331 328 325 323 323 324 325 327 327 324 319 319 324 320 315 327 338 330 329 335 341 342 341 341 343 342 340 340 340 338 335 345 357 359 356 357 355 352 351 351 352 356 361 363 362 362 362 363 363 363 361 358 357 358 358 357 357 358 360 361
327 330 330 331 331 328 327 326 325 326 326 324 323 322 323 328 322 318 330 342 334 331 333 335 339 342 341 341 340 339 339 337 339 343 349 358 365 362 358 355 353 352 353 357 360 361 363 362 361 362 364 363 362 361 358 356 356 357 357 357 357 359 361
327 329 329 330 331 329 328 328 327 326 327 325 324 325 326 327 326 326 331 338 336 332 332 333 336 338 337 337 338 338 338 336 339 346 347 349 356 361 360 357 353 350 352 356 358 361 363 362 362 362 364 364 363 361 359 356 355 357 358 357 357 358 360
325 329 330 329 329 329 327 327 328 328 327 327 325 326 326 325 327 328 328 331 332 331 332 334 335 335 335 338 339 338 339 338 337 343 342 338 343 355 360 359 352 346 349 355 358 360 361 361 362 362 363 364 363 362 361 357 355 356 358 358 358 357 360
323 327 329 328 328 329 325 324 328 328 326 326 326 327 327 326 326 327 325 325 328 332 333 333 334 335 335 337 338 337 338 339 337 338 339 337 343 352 356 356 354 349 347 352 356 357 358 360 362 363 364 365 364 363 363 360 357 357 358 359 358 358 359
322 327 328 327 327 324 322 324 328 328 329 329 328 329 330 329 327 326 323 324 331 336 335 333 332 334 335 337 337 336 336 339 339 338 337 335 341 347 345 346 353 354 350 349 350 350 352 356 358 360 363 365 364 363 363 362 360 359 359 360 360 359 360
321 325 327 326 324 321 323 329 330 330 330 329 328 328 330 331 330 328 327 329 334 336 334 333 334 335 337 338 336 335 336 338 340 340 338 336 336 341 343 344 351 356 355 352 348 347 348 350 352 356 362 366 365 364 364 364 362 361 362 363 361 360 361
321 324 325 323 321 323 329 333 333 332 330 330 331 330 331 332 331 332 334 334 334 335 333 332 334 335 334 333 332 333 334 335 336 337 338 338 335 336 342 349 354 355 357 357 353 350 349 350 354 358 361 365 366 365 365 365 363 361 363 364 363 362 363
322 322 323 322 324 328 332 333 333 333 333 332 330 328 329 332 330 332 336 336 337 339 336 331 331 332 331 331 331 332 331 332 334 334 334 335 336 336 336 345 352 352 351 354 354 352 353 355 358 360 361 365 368 367 365 364 363 362 364 365 364 363 363
324 321 321 324 326 327 330 333 333 335 336 335 332 329 332 334 331 333 339 340 339 339 337 334 333 333 333 333 333 331 331 330 332 333 332 332 334 335 333 335 343 345 342 346 350 352 355 358 359 361 363 366 369 368 366 364 364 364 365 365 365 364 364
324 323 322 325 324 323 329 335 336 336 335 335 336 333 333 337 336 337 342 342 339 339 339 339 340 341 341 337 334 332 331 330 330 330 332 331 331 333 334 332 334 339 340 342 346 349 353 356 359 362 365 367 369 369 367 366 365 365 366 367 368 367 367
323 323 323 325 323 325 333 339 338 337 335 335 336 330 330 340 345 342 343 343 341 342 344 344 344 345 343 339 335 332 330 330 332 331 331 332 331 331 333 331 332 338 340 341 347 352 355 357 359 362 365 367 369 369 369 366 365 366 368 370 370 367 367
326 325 325 325 326 330 338 339 336 336 336 336 334 326 329 345 350 344 344 345 344 346 348 347 346 344 342 342 339 335 333 331 331 332 332 333 333 332 332 332 334 339 342 344 351 357 358 358 359 362 365 369 371 370 369 368 368 369 369 370 369 366 367
327 328 326 326 328 335 341 338 336 337 336 333 329 327 335 347 346 341 344 344 344 347 348 348 349 347 344 344 339 334 334 332 334 337 337 337 336 333 334 339 343 349 354 354 356 358 358 358 362 365 367 370 371 371 370 370 369 368 368 369 368 367 368
326 327 327 325 328 334 337 335 335 337 335 330 331 336 343 344 341 341 344 343 344 347 347 348 350 348 346 345 341 338 337 335 338 340 336 335 339 338 338 346 351 355 360 360 358 359 361 363 364 367 368 371 372 372 371 370 369 367 367 368 369 368 367
325 324 324 324 327 332 333 335 337 336 334 335 339 342 342 341 342 343 344 346 347 348 346 347 348 347 346 346 343 341 340 339 340 343 339 336 341 348 354 357 356 358 360 360 360 362 366 368 369 369 370 372 373 372 370 369 369 368 368 368 367 365 363
324 321 323 327 332 335 332 336 340 340 339 340 342 341 339 340 342 342 343 346 347 347 348 349 348 346 346 348 349 349 349 347 345 348 350 345 341 351 362 364 363 363 363 363 365 367 370 371 370 370 372 373 371 370 369 368 367 367 367 366 362 358 356
329 328 331 335 338 339 336 337 340 340 339 339 339 339 339 338 338 340 342 345 346 349 351 352 352 350 350 352 356 356 356 357 356 359 363 360 354 357 362 364 365 367 367 367 368 368 369 370 369 370 371 370 368 368 368 367 367 366 364 359 353 349 348
339 339 340 338 339 339 335 336 338 337 336 336 337 338 338 337 339 342 345 346 348 349 350 351 353 351 351 353 354 354 356 358 358 360 363 362 360 362 364 364 365 367 368 368 367 367 368 368 368 369 368 367 367 367 367 365 363 359 354 348 343 340 338
340 341 341 340 340 340 337 336 336 335 335 336 337 338 338 338 342 345 345 346 347 347 348 349 349 347 348 350 351 352 354 355 354 355 355 357 359 363 365 365 364 365 366 365 365 367 367 367 368 368 367 366 364 363 361 358 352 345 339 337 335 334 334
339 337 338 339 338 338 338 336 337 336 336 337 337 337 338 339 340 341 341 342 342 343 343 344 345 345 345 346 347 348 350 352 354 353 352 353 355 358 361 363 362 363 364 364 365 366 366 367 367 365 363 362 360 359 355 347 339 335 334 334 333 334 336
338 336 337 339 338 337 336 336 337 336 336 336 335 335 336 336 337 337 336 336 337 337 337 338 339 340 340 342 344 346 347 349 350 351 352 354 353 352 354 358 360 362 362 362 362 362 362 362 361 359 358 357 356 352 346 338 334 334 335 333 334 336 339
338 337 337 339 339 337 337 336 335 334 334 334 333 332 332 332 333 333 333 333 333 333 333 334 335 336 336 338 339 341 344 346 347 347 348 351 353 354 353 353 355 357 358 357 356 356 356 356 355 355 355 353 348 341 335 334 334 334 334 335 338 340 343
336 336 337 338 337 336 335 334 334 333 332 332 331 331 330 330 330 330 330 329 329 330 330 331 331 332 333 334 335 336 339 341 344 346 345 346 349 352 350 348 351 354 355 354 353 352 352 351 350 350 349 343 337 334 334 334 334 334 335 339 341 342 345
334 335 336 336 334 333 331 331 332 332 331 330 330 330 329 329 329 328 327 327 326 325 326 328 329 329 330 331 332 332 333 335 339 343 345 346 348 348 347 348 352 355 356 355 354 353 353 352 351 351 350 344 338 335 335 336 337 337 340 342 343 344 345
334 334 334 333 331 330 329 329 329 329 328 328 329 329 328 327 326 326 326 326 324 323 323 323 323 325 328 329 330 330 330 331 333 335 339 343 346 348 351 352 353 354 355 355 355 355 355 355 355 354 353 349 342 337 338 340 339 339 342 345 345 346 345